Location: Bakhuizen
(52.8696°N, 5.4575°E)
Time: 03:37:57
(UTC+00:00)

Cosmos 1633 Rocket - Pass Details

Date: 11 May 2021
Orbit: 608 x 622 km, 82.5° (Epoch: 14 June)

Event Time Altitude Azimuth Distance (km) Brightness Sun altitude
Rises 20:31:32 0° 346° (NNW) 2,901 7.7 -8.8°
Reaches altitude 10° 20:33:47 10° 342° (NNW) 1,993 6.8 -9.0°
Maximum altitude 20:38:07 57° 265° (W) 730 3.6 -9.4°
Drops below altitude 10° 20:42:26 10° 186° (S) 1,985 5.3 -9.9°
Enters shadow 20:43:39 - 184° (S) 2,472 5.7 -10.0°
